Regional Weather Roundup
Issued by NWS Newport/Morehead, NC

Current Version | Previous Version | Graphics & Text | Print | Product List | Glossary Off
Versions: 1 2 3 4 5 6 7 8 9 10 11 12 13 14 15 16 17 18 19 20 21 22 23 24 25 26 27 28 29 30 31 32 33 34 35 36 37 38 39 40 41 42 43 44 45 46 47 48 49 50

000
ASUS42 KMHX 070513
RWRMHX
WEATHER ROUNDUP FOR EASTERN NORTH CAROLINA
NATIONAL WEATHER SERVICE NEWPORT/MOREHEAD CITY NC
100 AM EDT TUE JUL 07 2015

NOTE: "FAIR" INDICATES FEW OR NO CLOUDS BELOW 12,000 FEET
WITH NO SIGNIFICANT WEATHER AND/OR OBSTRUCTIONS TO VISIBILITY

NCZ015>017-031-032-045>047-102-103-070600-
NORTH COAST

CITY           SKY/WX    TMP DP  RH WIND       PRES   REMARKS
EDENTON        CLEAR     76  72  87 S9        30.08F
ELIZABETH CITY CLEAR     76  73  91 S8        30.08S
KITTY HAWK     CLEAR     78  73  83 SW6       30.08F
MANTEO         CLEAR     78  73  85 SW13      30.09F

$$

NCZ045>047-081-094-103-104-070600-
CENTRAL COAST

CITY           SKY/WX    TMP DP  RH WIND       PRES   REMARKS
FRISCO         CLEAR     77  76  96 SW10      30.11F
SWANQUARTER      N/A     79 N/A N/A SW10G16   30.06S

$$

NCZ095-097-098-100-101-070600-
SOUTHERN COAST

CITY           SKY/WX    TMP DP  RH WIND       PRES   REMARKS
BEAUFORT       CLEAR     79  76  90 S10       30.10F
CEDAR ISLAND     N/A     79 N/A N/A S7        30.15S
JACKSONVILLE   CLEAR     75  73  93 S3        30.10S
PINEY ISLAND   CLEAR    N/A N/A N/A S6        30.10F
WILMINGTON     CLEAR     77  73  87 SW6       30.10S


$$

NCZ011>013-027>030-043-044-078>080-089-090>093-098-070600-
COASTAL PLAIN

CITY           SKY/WX    TMP DP  RH WIND       PRES   REMARKS
AHOSKIE        CLEAR     74  71  89 S5        30.07S
CLINTON        CLEAR     73  72  96 CALM      30.10S
ELIZABETHTOWN  CLEAR     75  73  93 S3        30.09F
GOLDSBORO      CLEAR     75  70  85 CALM      30.07F
GREENVILLE     CLEAR     77  72  83 SW6       30.11S
HAVELOCK       CLEAR     77  73  87 CALM      30.11F
KENANSVILLE    CLEAR     73  70  90 CALM      30.11S
KINSTON        CLEAR     74  69  85 S5        30.10S
NEW BERN       CLEAR     76  74  93 CALM      30.11S
RICHLANDS      CLEAR     72  64  78 SW3       30.10F
ROCKY MOUNT    CLEAR     77  71  82 SW6       30.08F
WASHINGTON     CLEAR     75  73  91 SW5       30.10F
WHITEVILLE     CLEAR     74  72  91 CALM      30.09F

$$

AMZ130-135-150-152-154-156-158-170-250-252-270-ANZ085-086-088-633-658-670-070600-
MARINE OBSERVATIONS

STATION/POSITION TIME  TEMP    WIND        PRES    WAVE   SWELL
                       AIR SEA DIR/SP/G            HT/PER HT/PER
                 (UTC) (F)     (DEG/KT/KT) (MB)    (FT/S) (FT/S)
CHESAPEAKE LIGHT 0500   78     200/ 14/ 14 1018.9
64 E VA BEACH    0450   78 78  190/ 14/ 16 1018.5    3/ 5   2/ 9
DUCK             0400   79 72  200/ 12/ 16   N/A
2 E DUCK         0411      75                N/A     3/ 9   2/14
OREGON INLET     0400   81 83  210/ 15/ 18 1019.5
13E OREGON INLT  0500      77                N/A     3/13   2/13
HATTERAS CG      0400   80 81  200/  5/  8 1019.7
DIAMOND BUOY     0450   81 81  200/ 16/ 17 1019.5    3/ 4   2/10
CAPE LOOKOUT     0500   79     210/  7/  9 1019.4
BEAUFORT LAB     0400   80 82  220/  9/ 13 1018.9
30 SE NEW RVR IN NOT AVBL
27 SE WRIGHTSVLE 0400      80  230/ 10/ 12   N/A
5 SE WRIGHTSVLE  0408   80 79  210/ 12/ 16 1019.1
225 S CAPE HAT   0450   82 80  200/ 12/ 14 1021.7    4/ 8   3/ 8
41 SE CHARLESTON 0450   81 83  210/ 14/ 16 1018.7    3/ 8   2/ 8

$$



USA.gov is the U.S. government's official web portal to all federal, state and local government web resources and services.